Regional Weather Roundup
Issued by NWS Jackson, KY

Home | Current Version | Previous Version | Text Only | Print | Product List | Glossary On
Versions: 1 2 3 4 5 6 7 8 9 10 11 12 13 14 15 16 17 18 19 20 21 22 23 24 25 26 27 28 29 30 31 32 33 34 35 36 37 38 39 40 41 42 43 44 45 46 47 48 49 50
000
ASUS43 KJKL 310119
RWRJKL

EAST KENTUCKY HOURLY WEATHER ROUNDUP
NATIONAL WEATHER SERVICE JACKSON KY
900 PM EDT WED JUL 30 2014

NOTE: "FAIR" INDICATES FEW OR NO CLOUDS BELOW 12,000 FEET WITH
NO SIGNIFICANT WEATHER AND/OR OBSTRUCTIONS TO VISIBILITY.

* THESE REPORTS ARE NOT UNDER NWS QUALITY CONTROL AND MAY NOT
  REPORT WEATHER SUCH AS PRECIPITATION AND FOG.

KYZ079-080-083-085-087-088-110-112-115-119-120-310200
...EASTERN KENTUCKY...

CITY           SKY/WX    TMP DP  RH WIND       PRES   REMARKS
JACKSON        CLEAR     70  58  65 CALM      30.10R
LONDON         CLEAR     74  58  57 CALM      30.10R
SOMERSET*      CLEAR     70  59  68 W3        30.10R
MONTICELLO*    MOCLDY    67  64  90 CALM      30.10S
MIDDLESBORO*   PTCLDY    67  61  80 W3        30.10R
HARLAN APT*    CLEAR     64  59  82 MISG      30.11S
HAZARD APT*    CLEAR     70  61  73 CALM      30.10S
PIKEVILLE APT* CLEAR     70  57  64 CALM      30.10S
BIG SANDY*     PTCLDY    69  61  76 CALM      30.09R
MOREHEAD APT*    N/A     70  59  68 NE7       30.10R
ASHLAND*       PTCLDY    63  57  82 SE5       30.08R
$$

KYZ035-036-041-042-044-050-067-078-099-310200
...CENTRAL KENTUCKY...

CITY           SKY/WX    TMP DP  RH WIND       PRES   REMARKS
MT STERLING*   CLEAR     68  61  77 CALM      30.09R
FLEMING/MASON* MOCLDY    63  60  90 SE5       30.09R
DANVILLE*      CLEAR     66  59  77 CALM      30.09S
RICHMOND*      CLEAR     72  57  60 CALM      30.08S
LEXINGTON      CLEAR     72  56  57 CALM      30.07S
FRANKFORT      CLEAR     71  59  65 SW3       30.05S
$$

KYZ091>093-OHZ055-061-077-WVZ005-015-034-035-042-310200
...SOUTHERN OHIO/WEST VIRGINIA...

CITY           SKY/WX    TMP DP  RH WIND       PRES   REMARKS
COVINGTON      MOCLDY    71  60  68 CALM      30.06R
COLUMBUS       PTCLDY    70  59  68 S5        30.03R
DAYTON         PTCLDY    69  60  73 W9        30.05R
WILMINGTON     MOCLDY    64  61  90 S3        30.06R
HUNTINGTON     MOCLDY    62  61  96 NE5       30.10R
CHARLESTON     RAIN      63  62  97 CALM      30.10F FOG
PINEVILLE*     CLEAR     64  63  97 MISG      30.16S
BECKLEY        PTCLDY    64  53  67 CALM      30.15R
BLUEFIELD      CLEAR     66  52  60 W5        30.16S
$$

VAZ002-007-008-TNZ017-027-036-066-071-310200
...SOUTHWEST VIRGINIA/EAST TENNESSEE...

CITY           SKY/WX    TMP DP  RH WIND       PRES   REMARKS
WISE*          CLEAR     64  54  68 CALM      30.16S
JONESVILLE*      N/A     66  63  88 CALM      30.12S
ABINGDON*      CLEAR     65  59  78 CALM      30.13R
BRISTOL        MOCLDY    67  56  67 N3        30.10R
KNOXVILLE      CLOUDY    71  56  58 CALM      30.07S
OAK RIDGE      CLOUDY    70  61  73 CALM      30.10R
CROSSVILLE     CLOUDY    68  60  75 CALM      30.13S
NASHVILLE      CLOUDY    76  55  48 N5        30.07S
$$

...KEY TO REMARKS...
VSB - VISIBILITY IN MILES
WCI - WIND CHILL INDEX
HX  - HEAT INDEX

$$


USA.gov is the U.S. government's official web portal to all federal, state and local government web resources and services.